Printer-friendly version

IAU Minor Planet Center

Minor Planet Center

MPEC 2006-N10 : COMET C/2006 HW51 (SIDING SPRING)

The following Minor Planet Electronic Circular may be linked-to from your own Web pages, but must not otherwise be redistributed electronically.


Read MPEC 2006-N09 Read MPEC 2006-N11


M.P.E.C. 2006-N10                                Issued 2006 July 7, 17:49 UT

     The Minor Planet Electronic Circulars contain information on unusual
         minor planets and routine data on comets.  They are published
   on behalf of Commission 20 of the International Astronomical Union by the
          Minor Planet Center, Smithsonian Astrophysical Observatory,
                          Cambridge, MA 02138, U.S.A.

                  Supported in part by the Brinson Foundation
                  Supported in part by the TABASGO Foundation
             Prepared using the Tamkin Foundation Computer Network

                              MPC@CFA.HARVARD.EDU
          URL http://cfa-www.harvard.edu/iau/mpc.html  ISSN 1523-6714

                       COMET C/2006 HW51 (SIDING SPRING)

Observations:
    CK06H51W  C2006 06 25.28823 10 56 37.15 -21 39 44.2          17.4 N EN010467
    CK06H51W  C2006 06 25.29216 10 56 37.57 -21 39 41.7          17.2 N EN010467
    CK06H51W  C2006 06 25.29608 10 56 37.99 -21 39 39.0          17.1 N EN010467
    CK06H51W  C2006 06 25.29969 10 56 38.36 -21 39 36.5          17.6 N EN010467
    CK06H51W  C2006 06 25.30127 10 56 38.56 -21 39 35.6          17.6 N EN010467
    CK06H51W  C2006 06 25.30288 10 56 38.69 -21 39 34.6          17.5 N EN010467
    CK06H51W  C2006 06 27.30950 11 00 11.83 -21 18 11.6          17.7 N EN010467
    CK06H51W  C2006 06 27.31204 11 00 12.12 -21 18 09.9          17.6 N EN010467
    CK06H51W  C2006 06 27.31456 11 00 12.37 -21 18 08.6          17.5 N EN010467

Observer details:
467 Auckland Observatory.  Observer G. W. Christie.  0.35-m f/11
    Schmidt-Cassegrain + CCD.

Orbital elements:
    C/2006 HW51 (Siding Spring)
Epoch 2006 Sept. 22.0 TT = JDT 2454000.5
T 2006 Sept. 29.30632 TT                                MPC
q   2.2656837            (2000.0)            P               Q
z  -0.0010242      Peri.  359.95816     -0.66785403     +0.51855386
 +/-0.0000193      Node   228.12750     -0.68266638     -0.71258353
e   1.0023204      Incl.   45.80967     -0.29654277     +0.47257444
Residuals in seconds of arc
060423 E12  0.1+  0.2-    060429 E12  0.0   0.2+    060519 423  0.1-  0.1-
060423 E12  0.2+  0.4+    060429 J87  0.0   0.4-    060519 423  0.2+  0.2-
060423 E12  0.4+  0.1-    060429 J87  0.0   0.4-    060519 423  0.1+  0.1-
060423 E12  0.3-  0.1-    060429 J87  0.2-  0.0     060521 E12  0.0   0.4+
060423 E12  0.2-  0.6+    060430 J87  0.3+  0.0     060521 E12  0.0   0.2+
060423 E12  0.2-  0.1+    060430 J87  0.1-  0.4+    060521 E12  0.0   0.0
060423 E12  0.2+  0.1-    060430 J87  0.1-  0.3+    060521 E12  0.4+  0.0
060423 E12  0.8-  0.2-    060502 423  0.1-  0.2+    060521 808  0.5-  0.3-
060424 854  0.9+  0.2-    060502 423  0.3-  0.2-    060521 808  0.1-  0.2+
060424 854  0.0   0.2+    060502 423  0.1+  0.5-    060521 808  0.5+  0.1+
060424 854  0.4+  0.7-    060502 E12  0.0   0.1+    060527 E12  0.0   0.4+
060424 423  0.2-  0.1-    060502 E12  0.1-  0.1+    060527 E12  0.3-  0.2+
060424 423  0.1+  0.1+    060502 423  0.3-  0.0     060527 E12  0.3-  0.2+
060424 423  0.1+  0.0     060502 E12  0.1-  0.1+    060527 E12  0.1-  0.2+
060425 423  0.1-  0.1-    060504 428  0.2+  0.2-    060604 F65  0.2+  0.2-
060425 423  0.0   0.0     060504 423  0.9+  0.0     060604 F65  0.3+  0.3-
060426 E12  0.2+  0.3-    060504 423  0.4-  0.5+    060604 F65  0.1+  0.4-
060426 E12  0.1+  0.2+    060504 423  0.4-  0.4+    060604 F65  0.1+  0.3-
060426 E12  0.1-  0.3-    060504 428  0.2+  0.2-    060604 F65  0.1+  0.2-
060426 E12  0.3+  0.2-    060504 428  0.0   0.2+    060605 F65  0.3+  0.3-
060426 423  0.4-  0.1-    060506 423  0.2+  0.1-    060605 F65  0.1+  0.3-
060426 423  0.3-  0.2-    060506 423  0.2+  0.0     060605 F65  0.3+  0.4-
060427 734  0.2-  0.2-    060506 423  0.1-  0.2+    060605 F65  0.3+  0.4-
060427 734  0.0   0.1+    060506 D35 (1.1-  2.0-)   060606 673  0.3+  0.4+
060427 734  0.0   0.2-    060506 D35  0.8-  0.8-    060606 673  0.1+  0.1+
060427 423  0.2-  0.3+    060506 D35  0.4-  0.5-    060606 673  0.7+  0.0
060427 423  0.4-  0.5-    060508 D35  1.5+  1.0+    060606 673  0.0   0.3+
060427 E12  0.8-  0.2-    060508 D35 (2.8+  0.2+)   060606 E12  0.1-  0.1+
060427 423  0.5+  0.8-    060509 E12  0.0   0.1-    060606 E12  0.1-  0.5+
060427 E12  0.1+  0.4+    060509 E12  0.2+  0.2+    060606 E12  0.5-  0.3+
060427 E12  0.0   0.4-    060509 E12  0.5+  0.0     060606 E12  0.0   0.1-
060427 423  0.0   0.0     060509 E12  0.3+  0.4+    060606 E12  0.5-  0.1+
060427 E12  0.1-  0.0     060516 E12  0.3-  0.0     060606 E12  0.4+  0.2+
060427 E12  0.4+  0.1+    060516 E12  0.0   0.1+    060615 E12  0.1-  0.6-
060427 423  0.1-  0.1+    060516 E12  0.0   0.1-    060615 E12  0.1-  0.1+
060428 H36  0.3+  0.0     060516 E12  0.2-  0.3+    060615 E12  0.1-  0.1+
060428 H36  0.1+  1.1+    060517 423  0.0   0.2-    060615 E12  0.2-  0.4-
060429 423  0.3+  0.1+    060517 423  0.3-  0.3+    060625 467  0.2-  0.1-
060429 423  0.2-  0.1+    060517 423  0.0   0.2-    060625 467  0.1-  0.1-
060429 E12  0.1+  0.3+    060517 423  0.1-  0.1-    060625 467  0.0   0.0
060429 E12  0.0   0.1+    060517 I77  0.2+  0.4-    060625 467  0.1-  0.1+
060429 E12  0.1+  0.2+    060517 I77  0.7-  0.8-    060625 467  0.4+  0.0
060429 E12  0.0   0.3+    060517 I77  0.8-  0.1+    060625 467  0.1-  0.0
060429 E12  0.1-  0.2+    060519 423  0.1-  0.0     060627 467  0.2-  0.3+
060429 E12  0.0   0.2+    060519 423  0.3-  0.4+    060627 467  0.1+  0.4+
060429 E12  0.1-  0.2+    060519 423  0.5-  0.4-    060627 467  0.1-  0.1+

Ephemeris:
    C/2006 HW51 (Siding Spring)
Date    TT    R. A. (2000) Decl.     Delta      r     Elong.  Phase   m1    m2
2006 07 04    11 12.34   -20 11.7    2.498    2.473    76.8    23.6  16.9
2006 07 14    11 31.20   -18 45.1    2.562    2.430    71.1    23.3  16.9
2006 07 24    11 50.79   -17 33.1    2.629    2.392    65.4    22.7  16.9
2006 08 03    12 10.96   -16 34.0    2.699    2.358    59.8    21.8  16.9
2006 08 13    12 31.57   -15 45.8    2.770    2.329    54.3    20.7  16.9
2006 08 23    12 52.55   -15 06.6    2.841    2.305    48.9    19.3  16.9
2006 09 02    13 13.80   -14 34.2    2.910    2.287    43.6    17.7  16.9

     The "original" and "future" barycentric values of 1/a are +0.000015
and +0.000058 (+/- 0.000019) AU^-1, respectively.

Brian G. Marsden             (C) Copyright 2006 MPC           M.P.E.C. 2006-N10

Read MPEC 2006-N09 Read MPEC 2006-N11


Our Web policy. Index to the CBAT/MPC/ICQ pages.


Valid HTML 4.01!